Location: Goettingen
(51.5300°N, 9.9433°E)
Time: 19:56:07
(UTC+01:00)

Tiangong - Visible Passes

Search period start: 28 February 2024 00:00
Search period end: 09 March 2024 00:00
Orbit: 375 x 385 km, 41.5° (Epoch: 28 February)

Date Brightness Start Highest point End Pass type
(mag) Time Alt. Az. Time Alt. Az. Time Alt. Az.
02 Mar 0.3 19:25:08 10° S 19:26:16 11° S 19:26:52 11° SSE visible
03 Mar 0.3 19:59:26 10° SSW 20:00:35 13° S 20:00:35 13° S visible
04 Mar 0.3 18:58:23 10° SSW 18:59:53 13° S 19:01:23 10° SE visible
05 Mar 0.3 19:33:02 10° SW 19:34:34 13° S 19:35:41 11° SSE visible
07 Mar 0.5 19:06:34 10° SSW 19:07:46 12° S 19:08:58 10° SSE visible
